Terminal Aerodrome Forecast
Issued by NWS

Home | Current Version | Previous Version | Text Only | Print | Product List | Glossary On
Versions: 1 2 3 4 5 6 7 8 9 10 11 12 13 14 15 16 17 18 19 20 21 22 23 24 25
000
FTUS43 KDVN 030700 AAB
TAFCID
TAF AMD
KCID 030758Z 0308/0406 14013KT P6SM -FZRASNPL OVC025
      TEMPO 0309/0312 3SM -SN BR OVC015
     FM031200 17014G20KT 2SM -SNPL BR OVC012
     FM031500 22011KT 5SM BR OVC015
     FM032000 28014KT P6SM OVC022=

USA.gov is the U.S. government's official web portal to all federal, state and local government web resources and services.